Regional Weather Roundup
Issued by NWS Binghamton, NY

Home | Current Version | Previous Version | Text Only | Print | Product List | Glossary On
Versions: 1 2 3 4 5 6 7 8 9 10 11 12 13 14 15 16 17 18 19 20 21 22 23 24 25 26 27 28 29 30 31 32 33 34 35 36 37 38 39 40 41 42 43 44 45 46 47 48 49 50
000
ASUS41 KBGM 281410
RWRBGM
RWRBGM
BINGHAMTON REGIONAL WEATHER ROUNDUP
NATIONAL WEATHER SERVICE BINGHAMTON NY
1000 AM EDT TUE APR 28 2015

Note: "fair" indicates few or no clouds below 12,000 feet with no
significant weather and/or obstructions to visibility.

* = Station(s) that does not report precipitation, such as rain,
snow, etc, also no thunder or fog.

!NYZ009-015>018-022>025-036-037-044>046-055>057-062-281500
...CENTRAL NEW YORK...

CITY           SKY/WX    TMP DP  RH WIND       PRES   REMARKS
BINGHAMTON     MOSUNNY   50  40  68 NW13      29.89S
CORTLAND       FAIR      50  43  76 NW8       29.94S
DANSVILLE      SUNNY     53  42  66 N8        29.99F
ELMIRA         MOSUNNY   54  42  64 NW12G17   29.94S
ITHACA         PTSUNNY   48  40  74 NW8       29.95S
MONTICELLO     SUNNY     54  36  50 N20G26    29.84S
PENN YAN       SUNNY     52  40  63 NW8       29.96R
ROME           SUNNY     56  39  53 NW10      29.91S
SYRACUSE       MOSUNNY   53  41  63 W7        29.93S
$$

!PAZ038>040-043-044-047-048-072-281500
...NORTHEAST PENNSYLVANIA...

CITY           SKY/WX    TMP DP  RH WIND       PRES   REMARKS
HAZLETON       CLOUDY    52  39  62 N6        29.91R
SCRANTON       PTSUNNY   54  40  59 N13G21    29.88S
TOWANDA*       MOSUNNY   55  39  54 N10G18    29.94R
$$
&&
KEY
WCI = WIND CHILL INDEX
VSB = VISIBILITY
HX  = HEAT INDEX
$$


USA.gov is the U.S. government's official web portal to all federal, state and local government web resources and services.